STARLINK-3057, 49139

Orbit data source: Space-Track

STARLINK-3057, 49139 is a payload satellite owned by SpaceX/Seattle (US) in LEO that was launched on Tue, 14 Sep 2021 UTC via an FALCON 9 launch vehicle from the Air Force Western Test Range (AFWTR). Payload-class satellites include a variety of spacecraft equipped with specific instruments for various scientific and technological missions. These include communications satellites like Starlink; space stations such as the ISS; scientific satellites like the Hubble; Earth observation satellites from companies like Planet Labs, Umbra, and HawkEye 360; GPS; miniature CubeSats for education and research; and military/defense satellites.

Loading next visibility...
Identifier
49139, 2021-082K
Orbit
LEO
Country
Flag of USUS
Related business
Manufacturer
SpaceX/Seattle
Mission
Operational Commercial Communications
Bus & Motor
STARLINK, Unknown motor
Mass
297 kg wet, ~275 kg dry
Launch date (UTC)
2021-09-14 (4 years ago)
Launch vehicle
FALCON 9
Launch site
Air Force Western Test Range (AFWTR)
Object type
Payload
Rocket body
Debris
Shape & HBR
Box + 1 Pan, 10.1 m
Radar Cross Section
13.562 m², Large (>1 m²)

Expand to show TLE details & history
Last TLE update: 10 hours ago

TLE from 10 hours ago
0 STARLINK-3057
1 49139U 21082K   25311.10880958  .00003064  00000-0  26455-3 0  9998
2 49139  69.9994 203.5112 0002896 270.4617  89.6210 14.98318166228601
Epoch: 2025-11-07T02:36Z
TLE epoch observation values (Epoch: 2025-11-07T02:36:41.147Z)
Latitude
-0.00006°
Longitude
117.78223°
Altitude
574.504 km
Speed
7.574 km/s
True Right ascension
13h 34m 02s
True Declination
0° 00' 00"
Sunlit
Object was in daylight at epoch
Visualization orbit readout
Latitude
Unknown
Longitude
Unknown
Altitude
Unknown
Speed
Unknown
Apparent Right ascension
Unknown
Apparent Declination
Unknown
Sunlit
N/A
Visualization observer readout
Local Sidereal Time
08:46:56
Azimuth
Unknown
Elevation
Unknown
Doppler factor
Unknown
Orbital elements
Apogee altitude
572.053 km
Perigee altitude
568.029 km
Semi-major axis
6,948.178 km
Eccentricity
0.00029
Inclination
69.9994°
RAAN
203.5112°
Arg. of periapsis
270.4617°
True anomaly
89.65419°
Mean anomaly
89.621°
Eccentric anomaly
89.63759°
Mean motion
3.74746 °/min
Orbital period
96.07 mins
BSTAR
0.00026455
Loading maneuver chart data...
Computing Atmospheric mass density...
Loading historical data...
Loading historical data...
Loading historical data...
Loading historical data...
Loading historical data...
Loading historical data...
Loading historical data...

Documentation

Showing up to 5 results
|